Location: Glion
(46.4330°N, 6.9246°E)
Time: 20:30:23
(UTC+00:00)

Envisat - Visible Passes

Search period start: 04 August 2021 00:00
Search period end: 14 August 2021 00:00
Orbit: 764 x 766 km, 98.2° (Epoch: 04 August)

Date Brightness Start Highest point End Pass type
(mag) Time Alt. Az. Time Alt. Az. Time Alt. Az.
06 Aug 6.1 03:22:07 10° ENE 03:23:50 12° E 03:25:33 10° ESE visible
08 Aug 5.7 03:45:49 10° NE 03:49:32 20° E 03:53:13 10° SE visible
11 Aug 5.8 03:34:49 10° NE 03:37:54 16° E 03:40:58 10° SE visible
